This is the latest recevied weather packets stored in our database for station/object KQ4NAL. If no packets are shown the sender has not sent any weather packets the latest 10 day(s).
| Time | Temp. | Humidity | Pressure | Rain* | Wind** | Luminosity | Snow |
|---|---|---|---|---|---|---|---|
| 1777161436 | 20.56° C | 64% | 1011.8 hPa | 0 mm | - | 19 W/m² | - |
| 1777161131 | 20.56° C | 65% | 1011.6 hPa | 0 mm | - | 22 W/m² | - |
| 1777160828 | 21.11° C | 63% | 1011.6 hPa | 0 mm | - | 25 W/m² | - |
| 1777160528 | 21.11° C | 63% | 1011.5 hPa | 0 mm | - | 30 W/m² | - |
| 1777160225 | 21.67° C | 61% | 1011.5 hPa | 0 mm | - | 32 W/m² | - |
| 1777159920 | 21.67° C | 59% | 1011.6 hPa | 0 mm | - | 38 W/m² | - |
| 1777159616 | 21.67° C | 58% | 1011.5 hPa | 0 mm | - | 46 W/m² | - |
| 1777159314 | 22.22° C | 58% | 1011.5 hPa | 0 mm | - | 40 W/m² | - |
| 1777159009 | 22.78° C | 57% | 1011.6 hPa | 0 mm | - | 45 W/m² | - |
| 1777158703 | 22.78° C | 56% | 1011.4 hPa | 0 mm | - | 76 W/m² | - |
| 1777158399 | 22.78° C | 56% | 1011.4 hPa | 0 mm | - | 94 W/m² | - |
| 1777158095 | 22.78° C | 56% | 1011.4 hPa | 0 mm | - | 103 W/m² | - |
| 1777157791 | 23.33° C | 56% | 1011.5 hPa | 0 mm | - | 59 W/m² | - |
| 1777157487 | 23.33° C | 54% | 1011.2 hPa | 0 mm | - | 129 W/m² | - |
| 1777157179 | 23.33° C | 54% | 1011.3 hPa | 0 mm | - | 155 W/m² | - |
| 1777156878 | 23.33° C | 55% | 1011.2 hPa | 0 mm | - | 165 W/m² | - |
| 1777156573 | 23.33° C | 55% | 1011.2 hPa | 0 mm | - | 146 W/m² | - |
| 1777156270 | 23.89° C | 55% | 1011.2 hPa | 0 mm | - | 75 W/m² | - |
| 1777155966 | 23.89° C | 55% | 1011.2 hPa | 0 mm | - | 212 W/m² | - |
| 1777155663 | 23.89° C | 53% | 1011.4 hPa | 0 mm | - | 231 W/m² | - |
| 1777155359 | 23.89° C | 53% | 1011 hPa | 0 mm | - | 265 W/m² | - |
| 1777155056 | 22.78° C | 55% | 1011.1 hPa | 0 mm | - | 271 W/m² | - |
| 1777154754 | 22.78° C | 55% | 1011.2 hPa | 0 mm | - | 83 W/m² | - |
| 1777154449 | 23.89° C | 54% | 1011.2 hPa | 0 mm | - | 215 W/m² | - |
| 1777154144 | 24.44° C | 52% | 1011.2 hPa | 0 mm | - | 203 W/m² | - |
* Rain latest hour (hover to see other rain measurements)
** Current wind speed in m/s (hover to see current wind gust speed)